1302566433488,3.92354
1302566493488,3.94038
1302566553488,3.92774
1302566613488,3.91773
1302566673488,3.92755
1302566733488,3.92210
1302566793488,3.91083
1302566853488,3.88198
1302566913488,3.91302
1302566973488,3.90351
1302567033488,3.91808
1302567093488,3.97146
1302567153488,3.90211
1302567213488,3.91939
1302567273488,3.90837
1302567333488,3.95204
1302567393488,3.90310
1302567453488,3.91994
1302567513488,3.91866
1302567573488,3.92046
1302567633488,3.93190
1302567693488,3.92415
1302567753488,3.91446
1302567813488,3.87030
1302567873488,3.90075
1302567933488,3.92320
1302567993488,3.93527
1302568053488,3.90654
1302568113488,3.90436
1302568173488,3.91274
1302568233488,3.88178
1302568293488,3.91629
1302568353488,3.91965
1302568413488,3.89847
1302568473488,3.94688
1302568533488,3.92422
1302568593488,3.93559
1302568653488,3.91156
1302568713488,3.92958
1302568773488,3.93260
1302568833488,3.95793
1302568893488,3.94712
1302568953488,3.96174
1302569013488,3.93412
1302569073488,3.90965
1302569133488,3.92086
1302569193488,3.95991
1302569253488,3.92195
1302569313488,3.90338
1302569373488,3.92911
1302569433488,3.91940
1302569493488,3.93406
1302569553488,3.91693
1302569613488,3.93373
1302569673488,3.92169
1302569733488,3.94634
1302569793488,3.95294
1302569853488,3.93207
1302569913488,3.92619
1302569973488,3.94270
1302570033499,3.90957
1302570093499,3.92655
1302570153499,3.93120
1302570213499,3.90377
1302570273499,3.92981
1302570333499,3.92468
1302570393499,3.94075
1302570453499,3.92411
1302570513499,3.93621
1302570573499,3.91566
1302570633499,3.94008
1302570693499,3.93258
1302570753499,3.93013
1302570813499,3.94418
1302570873500,3.96153
1302570933500,3.89611
1302570993500,3.94024
1302571053500,3.92739
1302571113500,3.93877
1302571173499,3.92347
1302571233499,3.93203
1302571293499,3.89034
1302571353499,3.93435
1302571413499,3.92789
1302571473499,3.90404
1302571533499,3.91839
1302571593499,3.90358
1302571653499,3.89532
1302571713499,3.90524
1302571773499,3.93462
1302571833499,3.90026
1302571893499,3.89521
1302571953499,3.93591
1302572013499,3.88943
1302572073499,3.91413
1302572133499,3.91585
1302572193499,3.91284
1302572253500,3.94881
1302572313500,3.91881
1302572373500,3.93750
1302572433500,3.91530
1302572493500,3.93021
1302572553499,3.94646
1302572613499,3.95274
1302572673499,3.94415
1302572733499,3.93555
1302572793499,3.92209
1302572853499,3.90881
1302572913499,3.92801
1302572973499,3.93721
1302573033499,3.93299
1302573093499,3.91402
1302573153499,3.95041
1302573213499,3.93840
1302573273499,3.93847
1302573333499,3.93331
1302573393499,3.91876
1302573453499,3.92429
1302573513499,3.94704
1302573573500,3.91778
1302573633510,3.93427
1302573693510,3.93436
1302573753510,3.89405
1302573813510,3.94141
1302573873510,3.95836
1302573933510,3.92000
1302573993510,3.91686
1302574053510,3.94706
1302574113510,3.93196
1302574173510,3.92583
1302574233510,3.94258
1302574293510,3.93730
1302574353510,3.95038
1302574413510,3.94120
1302574473510,3.94011
1302574533510,3.93479
1302574593510,3.93557
1302574653510,3.93297
1302574713510,3.94951
1302574773510,3.95505
1302574833510,3.91767
1302574893510,3.93934
1302574953510,3.94242
1302575013510,3.94264
1302575073510,3.93615
1302575133510,3.95910
1302575193510,3.94475
1302575253510,3.93364
1302575313510,3.93700
1302575373510,3.95149
1302575433510,3.95045
1302575493510,3.90824
1302575553510,3.93268
1302575613510,3.93397
1302575673510,3.90550
1302575733510,3.93405
1302575793510,3.94228
1302575853510,3.92941
1302575913510,3.87587
1302575973510,3.90487
1302576033510,3.96317
1302576093510,3.94314
1302576153510,3.91404
1302576213510,3.95213
1302576273510,3.93329
1302576333510,3.94654
1302576393510,3.96330
1302576453510,3.92762
1302576513510,3.94664
1302576573510,3.94193
1302576633510,3.93654
1302576693510,3.97756
1302576753510,3.94652
1302576813510,3.96065
1302576873510,3.94482
1302576933510,3.92275
1302576993510,3.94053
1302577053510,3.93854
1302577113510,3.93265
1302577173510,3.99449
1302577233521,3.94268
1302577293521,3.94725
1302577353521,3.94555
1302577413521,3.91722
1302577473521,3.94806
1302577533521,3.95452
1302577593521,3.91873
1302577653521,3.94894
1302577713521,3.96788
1302577773521,3.95919
1302577833521,3.92489
1302577893521,3.97129
1302577953521,3.95505
1302578013521,3.93980
1302578073521,3.94576
1302578133521,3.95924
1302578193521,3.96930
1302578253521,3.94867
1302578313521,3.93688
1302578373521,3.98215
1302578433521,3.98634
1302578493521,3.98044
1302578553521,3.96787
1302578613521,3.96240
1302578673521,3.95576
1302578733521,3.92465
1302578793521,3.96458
1302578853521,3.95772
1302578913521,3.93301
1302578973521,3.95070
1302579033521,3.97132
1302579093521,3.94605
1302579153521,3.94564
1302579213521,3.98539
1302579273521,3.93755
1302579333521,3.93748
1302579393521,3.91419
1302579453521,3.94703
1302579513521,3.92662
1302579573521,3.95694
1302579633521,3.94479
1302579693521,3.89689
1302579753521,3.98573
1302579813521,3.99502
1302579873521,4.01190
1302579933521,4.13060
1302579993521,4.13314
1302580053521,4.11984
1302580113521,4.10212
1302580173521,4.07213
1302580233521,4.05902
1302580293521,4.04167
1302580353521,3.99667
1302580413521,4.03656
1302580473521,3.96980
1302580533521,4.00562
1302580593521,3.98393
1302580653521,3.97737
1302580713521,3.98702
1302580773521,3.95094
1302580833532,3.97875
1302580893532,3.92582
1302580953532,3.97405
1302581013532,3.96153
1302581073532,4.01112
1302581133532,3.98251
1302581193532,3.95475
1302581253532,3.95455
1302581313532,3.95581
1302581373532,3.95956
1302581433532,3.99123
1302581493532,3.96523
1302581553532,3.95002
1302581613532,3.97355
1302581673532,3.95442
1302581733532,3.97893
1302581793532,3.95373
1302581853532,3.93163
1302581913532,3.96247
1302581973532,3.94811
1302582033532,3.97162
1302582093532,3.98943
1302582153532,3.99171
1302582213532,3.95833
1302582273532,3.98347
1302582333532,3.94367
1302582393532,3.98429
1302582453532,3.98235
1302582513532,3.98544
1302582573532,3.96585
1302582633532,3.97880
1302582693532,3.94595
1302582753532,3.99983
1302582813532,3.98191
1302582873532,3.96872
1302582933532,3.97412
1302582993532,3.98386
1302583053532,4.02198
1302583113532,3.98419
1302583173532,3.99029
1302583233532,3.99206
1302583293532,4.00229
1302583353532,3.98282
1302583413532,3.98040
1302583473532,4.02857
1302583533532,4.01190
1302583593532,3.99241
1302583653532,4.00369
1302583713532,4.04674
1302583773532,4.07680
1302583833532,4.05340
1302583893532,4.00897
1302583953532,4.02108
1302584013532,4.01684
1302584073532,4.01884
1302584133532,4.02506
1302584193532,4.00119
1302584253532,4.00276
1302584313532,4.02761
1302584373532,3.98767
1302584433543,4.01114
1302584493543,4.03068
1302584553543,3.97737
1302584613543,3.98830
1302584673543,4.01200
1302584733543,3.99932
1302584793543,3.98398
1302584853543,4.02147
1302584913543,3.97508
1302584973543,3.98400
1302585033543,3.98345
1302585093543,3.98538
1302585153543,3.96658
1302585213543,3.97427
1302585273543,3.99949
1302585333543,4.01309
1302585393543,3.98827
1302585453543,3.98051
1302585513543,4.00042
1302585573543,4.02781
1302585633543,4.00388
1302585693543,4.01262
1302585753543,4.01195
1302585813543,4.00273
1302585873543,3.99104
1302585933543,4.02131
1302585993543,4.02341
1302586053543,4.02338
1302586113543,4.00212
1302586173543,3.99483
1302586233543,4.02427
1302586293543,3.99939
1302586353543,3.96497
1302586413543,4.00785
1302586473543,3.99416
1302586533543,3.98057
1302586593543,4.00689
1302586653543,3.97584
1302586713543,3.96514
1302586773543,3.98261
1302586833543,4.00217
1302586893543,3.96132
1302586953543,3.99453
1302587013543,4.00043
1302587073543,3.94950
1302587133543,3.97612
1302587193543,3.98936
1302587253543,3.98979
1302587313543,3.97266
1302587373543,3.98260
1302587433543,3.99244
1302587493543,4.00170
1302587553543,3.97628
1302587613543,3.99092
1302587673543,3.97922
1302587733543,3.99698
1302587793543,3.98690
1302587853543,3.98425
1302587913543,3.95908
1302587973543,3.94749
1302588033553,3.98639
1302588093553,3.98860
1302588153553,3.99565
1302588213553,4.03362
1302588273553,4.06748
1302588333553,4.15074
1302588393553,4.25580
1302588453553,4.28705
1302588513553,4.25603
1302588573553,4.22126
1302588633553,4.18697
1302588693553,4.08855
1302588753553,4.10602
1302588813553,4.08934
1302588873553,4.07756
1302588933553,4.01028
1302588993553,4.05036
1302589053553,4.04288
1302589113553,4.02296
1302589173553,4.01421
1302589233553,4.00453
1302589293553,3.99877
1302589353553,3.99117
1302589413553,3.99947
1302589473553,3.99801
1302589533553,3.99060
1302589593553,3.97823
1302589653553,3.96931
1302589713553,4.01419
1302589773553,3.99403
1302589833553,3.96305
1302589893553,4.01109
1302589953553,3.96543
1302590013553,4.02380
1302590073553,4.01957
1302590133553,3.98299
1302590193553,3.95259
1302590253553,3.95714
1302590313553,4.00481
1302590373553,4.01135
1302590433553,4.00286
1302590493553,4.00052
1302590553553,4.02506
1302590613553,3.98890
1302590673553,3.97903
1302590733553,4.00815
1302590793553,4.02449
1302590853553,4.02235
1302590913553,3.95639
1302590973553,3.99195
1302591033553,3.98330
1302591093553,3.98124
1302591153553,3.96933
1302591213553,3.98198
1302591273553,3.94954
1302591333553,3.95074
1302591393553,3.96224
1302591453553,3.98131
1302591513553,3.97630
1302591573553,3.95422
1302591633564,3.98070
1302591693564,3.96430
1302591753564,3.95494
1302591813564,3.97453
1302591873564,3.95426
1302591933564,3.99990
1302591993564,3.95654
1302592053564,3.98340
1302592113564,3.95954
1302592173564,3.94382
1302592233564,3.97228
1302592293564,3.95913
1302592353564,3.99989
1302592413564,3.96937
1302592473564,3.96691
1302592533564,3.96038
1302592593564,3.94842
1302592653564,3.94975
1302592713564,3.98146
1302592773564,3.95661
1302592833564,3.99480
1302592893564,3.95708
1302592953564,3.95469
1302593013564,3.92170
1302593073564,3.95474
1302593133564,3.93974
1302593193564,3.93490
1302593253564,3.97183
1302593313564,3.96820
1302593373564,3.94400
1302593433564,3.95085
1302593493564,3.94385
1302593553564,3.95391
1302593613564,3.95821
1302593673564,3.93644
1302593733564,3.96025
1302593793564,3.95271
1302593853564,3.96606
1302593913564,3.94800
1302593973564,3.93525
1302594033564,3.95561
1302594093564,3.96248
1302594153564,3.97237
1302594213564,3.94525
1302594273564,3.95744
1302594333564,3.97140
1302594393564,3.92282
1302594453564,3.95292
1302594513564,3.98952
1302594573564,3.94430
1302594633564,4.00383
1302594693564,3.94801
1302594753564,3.95660
1302594813564,3.95793
1302594873564,3.93282
1302594933564,3.95458
1302594993564,3.92035
1302595053564,3.98950
1302595113564,3.96101
1302595173564,3.93630
1302595233575,3.93768
1302595293575,3.95842
1302595353575,3.92835
1302595413574,3.90861
1302595473574,3.91149
1302595533574,3.92814
1302595593574,3.91888
1302595653574,3.93186
1302595713574,3.93240
1302595773574,3.91797
1302595833574,3.95561
1302595893574,3.94899
1302595953574,3.94377
1302596013575,3.97328
1302596073574,3.94125
1302596133574,3.95560
1302596193574,3.97454
1302596253574,3.92142
1302596313575,3.98868
1302596373575,3.91268
1302596433575,3.97271
1302596493575,3.99391
1302596553575,3.95143
1302596613575,3.94809
1302596673575,3.96132
1302596733574,3.96075
1302596793574,3.96886
1302596853574,3.93364
1302596913574,3.94586
1302596973574,3.93343
1302597033574,3.97387
1302597093574,3.94188
1302597153574,3.96248
1302597213574,3.95482
1302597273574,3.95742
1302597333575,3.95825
1302597393574,3.94408
1302597453574,3.97557
1302597513574,3.99755
1302597573574,3.98730
1302597633574,3.96685
1302597693575,3.98297
1302597753575,3.96917
1302597813575,4.01074
1302597873575,3.95244
1302597933575,3.97772
1302597993575,3.98236
1302598053575,3.96807
1302598113574,4.00918
1302598173574,3.99985
1302598233574,4.04837
1302598293574,4.02455
1302598353574,4.00678
1302598413574,4.02527
1302598473574,4.01368
1302598533574,4.00986
1302598593574,4.00021
1302598653574,3.98586
1302598713575,3.95849
1302598773574,3.98279
1302598833585,4.00646
1302598893585,4.01511
1302598953585,3.99783
1302599013585,3.95753
1302599073585,4.00737
1302599133585,3.99571
1302599193585,3.97389
1302599253585,3.97477
1302599313585,3.95883
1302599373585,3.98304
1302599433585,3.98727
1302599493585,3.93284
1302599553585,3.97874
1302599613585,3.95154
1302599673585,3.96286
1302599733585,3.99076
1302599793585,3.96718
1302599853585,3.94275
1302599913585,3.95729
1302599973585,3.94976
1302600033585,3.95210
1302600093585,3.92959
1302600153585,3.94515
1302600213585,3.92356
1302600273585,3.97214
1302600333585,3.90545
1302600393585,3.93040
1302600453585,3.97770
1302600513585,3.91967
1302600573585,3.94956
1302600633585,3.91771
1302600693585,3.92515
1302600753585,3.94196
1302600813585,3.92381
1302600873585,3.95484
1302600933585,3.92995
1302600993585,3.94569
1302601053585,3.93253
1302601113585,3.95861
1302601173585,3.95407
1302601233585,3.93788
1302601293585,3.94786
1302601353585,3.92184
1302601413585,3.96541
1302601473585,3.94308
1302601533585,3.91072
1302601593585,3.91673
1302601653585,3.96163
1302601713585,3.93872
1302601773585,3.93817
1302601833585,3.94733
1302601893585,3.97667
1302601953585,3.93761
1302602013585,3.93427
1302602073585,3.92748
1302602133585,3.94599
1302602193585,3.98994
1302602253585,3.95839
1302602313585,3.93234
1302602373585,3.93667
1302602433596,3.95373
1302602493596,3.98184
1302602553596,3.93398
1302602613596,3.93910
1302602673596,3.93122
1302602733596,3.98467
1302602793596,3.94891
1302602853596,3.96150
1302602913596,3.92925
1302602973596,3.94878
1302603033596,3.93591
1302603093596,3.94066
1302603153596,3.93484
1302603213596,3.94808
1302603273596,3.94938
1302603333596,3.95841
1302603393596,3.90171
1302603453596,3.93299
1302603513596,3.93919
1302603573596,3.95006
1302603633596,3.96178
1302603693596,3.96187
1302603753596,3.93467
1302603813596,3.94088
1302603873596,3.92905
1302603933596,3.90908
1302603993596,3.94613
1302604053596,3.95549
1302604113596,3.95184
1302604173596,3.98092
1302604233596,3.99503
1302604293596,3.97378
1302604353596,4.01187
1302604413596,4.00826
1302604473596,4.04007
1302604533596,4.00293
1302604593596,3.99034
1302604653596,3.92999
1302604713596,3.97240
1302604773596,3.97707
1302604833596,3.96704
1302604893596,3.93288
1302604953596,3.99179
1302605013596,3.98670
1302605073596,3.94579
1302605133596,3.99296
1302605193596,3.94008
1302605253596,3.95579
1302605313596,3.97366
1302605373596,3.94863
1302605433596,3.95551
1302605493596,3.93437
1302605553596,3.94275
1302605613596,3.93632
1302605673596,3.96470
1302605733596,3.96212
1302605793596,3.96770
1302605853596,3.94753
1302605913596,3.95438
1302605973596,3.96010
1302606033606,3.97105
1302606093606,3.97109
1302606153606,3.94732
1302606213606,3.97199
1302606273606,3.96643
1302606333606,3.98693
1302606393606,3.96526
1302606453606,3.96186
1302606513606,3.95581
1302606573606,3.94366
1302606633606,3.97974
1302606693606,3.95447
1302606753606,3.98625
1302606813606,3.97454
1302606873606,3.96678
1302606933606,3.96267
1302606993606,3.97351
1302607053606,3.97494
1302607113606,3.97119
1302607173606,3.97721
1302607233606,3.96366
1302607293606,3.95291
1302607353606,3.98714
1302607413606,3.90371
1302607473606,3.99241
1302607533606,3.98884
1302607593606,3.97444
1302607653606,3.97727
1302607713606,3.93376
1302607773606,3.98634
1302607833606,3.99501
1302607893606,3.97106
1302607953606,3.96437
1302608013606,3.97973
1302608073606,3.96698
1302608133606,3.96322
1302608193606,3.98098
1302608253606,3.94758
1302608313606,3.94799
1302608373606,3.97156
1302608433606,3.98040
1302608493606,3.96326
1302608553606,3.95310
1302608613606,3.98390
1302608673606,3.95783
1302608733606,3.95271
1302608793606,3.99622
1302608853606,3.99890
1302608913606,3.98407
1302608973606,4.00250
1302609033606,3.96490
1302609093606,3.99781
1302609153606,3.98888
1302609213606,4.00431
1302609273606,3.99233
1302609333606,3.99421
1302609393606,3.98788
1302609453606,3.98463
1302609513606,3.97352
1302609573606,3.96786
1302609633617,3.98326
1302609693617,4.00065
1302609753617,3.98498
1302609813617,3.99243
1302609873617,3.99750
1302609933617,3.96696
1302609993617,3.96990
1302610053617,3.95083
1302610113617,3.98669
1302610173617,3.98292
1302610233617,3.99798
1302610293617,3.98384
1302610353617,3.99278
1302610413617,3.96396
1302610473617,4.01377
1302610533617,4.03670
1302610593617,4.00782
1302610653617,4.01360
1302610713617,3.99766
1302610773617,4.04007
1302610833617,4.01476
1302610893617,3.99390
1302610953617,4.03442
1302611013617,4.07933
1302611073617,4.16878
1302611133617,4.19044
1302611193617,4.16542
1302611253617,4.15882
1302611313617,4.16107
1302611373617,4.15705
1302611433617,4.16326
1302611493617,4.15610
1302611553617,4.16004
1302611613617,4.14510
1302611673617,4.11557
1302611733617,4.09807
1302611793617,4.06075
1302611853617,4.09163
1302611913617,4.03862
1302611973617,4.01084
1302612033617,4.02397
1302612093617,4.00077
1302612153617,3.98007
1302612213617,3.97795
1302612273617,3.96236
1302612333617,3.96602
1302612393617,3.98111
1302612453617,3.99761
1302612513617,3.99475
1302612573617,3.99424
1302612633617,3.98366
1302612693617,3.95926
1302612753617,3.96271
1302612813617,3.95564
1302612873617,3.98480
1302612933617,3.97955
1302612993617,3.96914
1302613053617,3.97179
1302613113617,3.92474
1302613173617,3.90487
1302613233627,3.93090
1302613293627,3.92970
1302613353627,3.92420
1302613413627,3.94587
1302613473627,3.88294
1302613533627,3.93658
1302613593627,3.93481
1302613653627,3.94711
1302613713627,3.90486
1302613773627,3.92025
1302613833627,3.91386
1302613893627,3.93379
1302613953627,3.91735
1302614013627,3.89056
1302614073627,3.90005
1302614133627,3.89175
1302614193627,3.92931
1302614253627,3.90008
1302614313627,3.89069
1302614373627,3.90404
1302614433627,3.91757
1302614493627,3.94802
1302614553627,3.92025
1302614613627,3.88838
1302614673627,3.89434
1302614733627,3.91919
1302614793627,3.91006
1302614853627,3.91869
1302614913627,3.94613
1302614973627,3.97182
1302615033627,3.93627
1302615093627,3.92386
1302615153627,3.93074
1302615213627,3.92410
1302615273627,3.94627
1302615333627,3.91732
1302615393627,3.92065
1302615453627,3.94582
1302615513627,3.92839
1302615573627,3.93158
1302615633627,3.93364
1302615693627,3.91858
1302615753627,3.92251
1302615813627,3.90034
1302615873627,3.91144
1302615933627,3.92503
1302615993627,3.89473
1302616053627,3.91749
1302616113627,3.94024
1302616173627,3.89588
1302616233627,3.87962
1302616293627,3.90805
1302616353627,3.92602
1302616413627,3.92773
1302616473627,3.93745
1302616533627,3.90484
1302616593627,3.92411
1302616653627,3.92837
1302616713627,3.89459
1302616773627,3.91727
1302616833637,3.94507
1302616893637,3.94165
1302616953637,3.91378
1302617013637,3.92582
1302617073637,3.95997
1302617133637,3.90139
1302617193637,3.92260
1302617253637,3.96620
1302617313637,3.95297
1302617373637,3.86420
1302617433637,3.93017
1302617493637,3.94163
1302617553637,3.91922
1302617613637,3.88019
1302617673637,3.88972
1302617733637,3.92990
1302617793637,3.93689
1302617853637,3.91788
1302617913637,3.93765
1302617973637,3.92371
1302618033637,3.93965
1302618093637,3.92747
1302618153637,3.95715
1302618213637,3.94549
1302618273637,3.93742
1302618333637,3.93762
1302618393637,3.94132
1302618453637,3.97314
1302618513637,3.94208
1302618573637,3.95483
1302618633637,3.94678
1302618693637,3.94129
1302618753637,3.96126
1302618813637,3.93665
1302618873637,3.93923
1302618933637,3.94857
1302618993637,3.90271
1302619053637,3.93848
1302619113637,3.97124
1302619173637,3.92953
1302619233637,3.90618
1302619293637,3.94486
1302619353637,3.95106
1302619413637,3.92735
1302619473637,3.90856
1302619533637,3.93224
1302619593637,3.98231
1302619653637,3.94814
1302619713637,3.90208
1302619773637,3.93884
1302619833637,3.90176
1302619893637,3.93143
1302619953637,3.93909
1302620013637,3.92305
1302620073637,3.92526
1302620133637,3.92402
1302620193637,3.94439
1302620253637,3.91568
1302620313637,3.92649
1302620373637,3.90644
1302620433647,3.90670
1302620493647,3.93017
1302620553647,3.95578
1302620613647,3.93519
1302620673647,3.89939
1302620733647,3.91444
1302620793647,3.93512
1302620853647,3.93945
1302620913647,3.93633
1302620973647,3.94957
1302621033647,3.94421
1302621093647,3.94060
1302621633647,3.94641
1302621693647,4.14771
1302621753647,3.94053
1302621813647,3.95207
1302621873647,3.91414
1302621933647,3.95288
1302621993647,3.94195
1302622053647,3.94775
1302622113647,3.91906
1302622173647,3.93211
1302622233647,3.91610
1302622293647,3.94760
1302622353647,3.95744
1302622413647,3.93026
1302622473647,3.95727
1302622533647,3.95394
1302622593647,3.95372
1302622653647,3.91990
1302622713647,3.94966
1302622773647,3.95843
1302622833647,3.93410
1302622893647,3.93264
1302622953647,3.93220
1302623013647,3.95421
1302623073647,3.93457
1302623133647,3.94530
1302623193647,3.92539
1302623253647,3.94284
1302623313647,3.93768
1302623373647,3.94149
1302623433647,3.94704
1302623493647,3.95508
1302623553647,3.94325
1302623613647,3.93069
1302623673647,3.94150
1302623733647,3.94059
1302623793647,3.94832
1302623853647,3.96377
1302623913647,3.94028
1302623973647,3.94702
1302624033657,3.94485
1302624093657,3.93863
1302624153657,3.95116
1302624213657,3.93671
1302624273657,3.95920
1302624333657,3.91483
1302624393657,3.95109
1302624453657,3.94629
1302624513657,3.92671
1302624573657,3.91524
1302624633657,3.97714
1302624693657,3.97073
1302624753657,3.96038
1302624813657,3.97741
1302624873657,3.97951
1302624933657,4.01335
1302624993657,3.96760
1302625053657,4.00736
1302625113657,3.96153
1302625173657,4.00234
1302625233657,4.02174
1302625293657,3.97020
1302625353657,3.99433
1302625413657,3.97588
1302625473657,3.99249
1302625533657,3.97796
1302625593657,3.97830
1302625653657,4.08557
1302625713657,4.01327
1302625773657,3.97820
1302625833657,3.97900
1302625893657,3.97481
1302625953657,3.99658
1302626013657,3.95987
1302626073657,3.96199
1302626133657,3.99485
1302626193657,3.96751
1302626253657,3.95601
1302626313657,3.96138
1302626373657,3.97671
1302626433657,3.96973
1302626493657,3.95349
1302626553657,4.00787
1302626613657,3.99326
1302626673657,3.97208
1302626733657,3.95373
1302626793657,3.96200
1302626853657,3.97723
1302626913657,3.98406
1302626973657,3.93147
1302627033657,3.95320
1302627093657,4.00419
1302627153657,3.98838
1302627213657,3.96824
1302627273657,3.98055
1302627333657,3.98309
1302627393657,3.99370
1302627453657,3.95265
1302627513657,3.93442
1302627573657,3.99501
1302627633667,3.97804
1302627693667,3.92213
1302627753667,3.92676
1302627813667,3.97331
1302627873667,3.91157
1302627933667,3.97239
1302627993667,3.93701
1302628053667,3.96837
1302628113667,3.93982
1302628173667,3.96567
1302628233667,3.98895
1302628293667,3.97485
1302628353667,3.91922
1302628413667,3.95131
1302628473667,3.92378
1302628533667,3.94922
1302628593667,3.97743
1302628653667,3.95730
1302628713667,3.97932
1302628773667,3.94758
1302628833667,3.94915
1302628893667,3.96226
1302628953667,3.95186
1302629013667,3.94239
1302629073667,3.96164
1302629133667,3.92562
1302629193667,3.94604
1302629253667,3.94654
1302629313667,3.95300
1302629373667,3.89141
1302629433667,3.97043
1302629493667,3.93203
1302629553667,3.92803
1302629613667,3.95690
1302629673667,3.95607
1302629733667,3.95291
1302629793667,3.97411
1302629853667,3.99274
1302629913667,3.96177
1302629973667,3.95017
1302630033667,3.96057
1302630093667,3.98034
1302630153667,3.97406
1302630213667,3.94437
1302630273667,3.96430
1302630333667,3.94738
1302630393667,3.95248
1302630453667,3.99131
1302630513667,3.95944
1302630573667,3.93547
1302630633667,3.98631
1302630693667,3.97106
1302630753667,3.96141
1302630813667,3.98399
1302630873667,3.99169
1302630933667,3.98668
1302630993667,3.99285
1302631053667,4.06202
1302631113667,4.01678
1302631173667,4.06157
1302631233677,4.02830
1302631293677,3.99969
1302631353677,4.01594
1302631413677,3.99503
1302631473677,3.99704
1302631533677,3.99331
1302631593677,4.01078
1302631653677,4.01187
1302631713677,3.99575
1302631773677,3.99948
1302631833677,4.00855
1302631893677,4.00544
1302631953677,4.00929
1302632013677,3.97980
1302632073677,4.01011
1302632133677,3.99842
1302632193677,3.99208
1302632253677,3.97122